Main page
METAR-TAF:

METAR-TAF

Airports :

Tartu Airport

Tartu, Estonia

latitude: 58-18N, longitude: 026-44E, elevation: 59 m

Current weather observation

The report was made 24 minutes ago, at 11:20 UTC
Wind 5 kt from the South, varying between Southeast and South/Southwest
Temperature -5°C
Humidity 93%
Pressure 1014 hPa
Visibility: 3000 m
Broken clouds at a height of 1000 ft
Overcast at a height of 1700 ft
light snow

METAR: EETU 061120Z 17005KT 140V200 3000 -SN BKN010 OVC017 M05/M06 Q1014

Time: 13:44 (11:44 UTC)


TAF: missing

Weather observations and forecasts of more than 4000 airports (METAR and TAF reports).

The available stations are represented by yellow and red dots on the map.

Hover mouse over dot to see the name of the station.

Then click to see weather observations and forecasts.

To change the map : click on the green buttons with a black cross to zoom in, on the green button with a dash to zoom out, or on the green arrows for adjacent maps.


METAR-TAF: